Weather History for Christchurch, New Zealand

Change the Weather History Date:

Monday, May 13, 2013

  Actual Average Record
Temperature  
Mean Temperature 50 °F -  
Max Temperature 53 °F 57 °F 71 °F (2001)
Min Temperature 48 °F 38 °F 26 °F (2008)
Degree Days  
Heating Degree Days 14    
Moisture  
Dew Point 49 °F    
Average Humidity 95    
Maximum Humidity 100    
Minimum Humidity 88    
Precipitation  
Precipitation 0.00 in - - ()
Sea Level Pressure  
Sea Level Pressure 30.28 in    
Wind  
Wind Speed 5 mph ()    
Max Wind Speed 12 mph    
Max Gust Speed -    
Visibility 5.1 miles    
Events      
Averages and records for this station are not official NWS values.
T = Trace of Precipitation, MM = Missing Value Source: Averaged Metar Reports

Daily Weather History Graph

Daily Weather History Graph

Search for Another Location

Airport:

Trip Planner

Search our weather history database for the weather conditions in past years. The results will help you decide how hot, cold, wet, or windy it might be!

Date:

Astronomy

May. 13, 2013 Rise Set
Actual Time 7:34 AM NZST 5:17 PM NZST
Civil Twilight 7:03 AM NZST 5:48 PM NZST
Nautical Twilight 6:28 AM NZST 6:22 PM NZST
Astronomical Twilight 5:55 AM NZST 6:56 PM NZST
Moon 10:03 AM NZST (5/13) 7:39 PM NZST (5/13)
Length of Visible Light 10h 44m
Length of Day
9h 43m
Waxing Crescent, 8% of the Moon is Illuminated
May 13
Waxing Crescent
May 18
First Quarter
May 25
Full
Jun 1
Last Quarter
Jun 9
New

Hourly Weather History & Observations

Time (NZST) Temp. Dew Point Humidity Pressure Visibility Wind Dir Wind Speed Gust Speed Precip Events Conditions
12:00 AM 50.0 °F 48.2 °F 94% 30.36 in 6.2 mi WSW 6.9 mph - N/A   Mostly Cloudy
1:00 AM 51.8 °F 50.0 °F 94% 30.36 in 6.2 mi SW 8.1 mph - N/A   Overcast
2:00 AM 50.0 °F 48.2 °F 94% 30.36 in 6.2 mi SW 6.9 mph - N/A   Overcast
3:00 AM 50.0 °F 48.2 °F 94% 30.33 in 6.2 mi SSW 3.5 mph - N/A   Overcast
4:00 AM 50.0 °F 48.2 °F 94% 30.30 in 5.0 mi NW 1.2 mph - N/A   Overcast
5:00 AM 48.2 °F 48.2 °F 100% 30.30 in 3.7 mi NNE 4.6 mph - N/A   Overcast
6:00 AM 48.2 °F 48.2 °F 100% 30.30 in 1.6 mi North 1.2 mph - N/A   Overcast
7:00 AM 48.2 °F 48.2 °F 100% 30.33 in 1.2 mi ESE 2.3 mph - N/A   Overcast
8:00 AM 48.2 °F 48.2 °F 100% 30.33 in 3.1 mi West 2.3 mph - N/A   Overcast
9:00 AM 50.0 °F 48.2 °F 94% 30.33 in 3.1 mi Calm Calm - N/A   Overcast
9:30 AM 50.0 °F 50.0 °F 100% 30.33 in 3.1 mi NNE 1.2 mph - N/A   Mostly Cloudy
10:00 AM 50.0 °F 50.0 °F 100% 30.33 in 3.1 mi NNE 2.3 mph - N/A   Mostly Cloudy
11:00 AM 50.0 °F 50.0 °F 100% 30.33 in 4.3 mi NNE 3.5 mph - N/A   Overcast
12:00 PM 51.8 °F 50.0 °F 94% 30.30 in 6.2 mi NE 4.6 mph - N/A   Mostly Cloudy
1:00 PM 51.8 °F 50.0 °F 94% 30.27 in 6.2 mi NE 6.9 mph - N/A   Mostly Cloudy
2:00 PM 53.6 °F 50.0 °F 88% 30.24 in 6.2 mi ENE 11.5 mph - N/A   Mostly Cloudy
3:00 PM 51.8 °F 50.0 °F 94% 30.24 in 6.2 mi ENE 11.5 mph - N/A   Mostly Cloudy
4:00 PM 51.8 °F 48.2 °F 88% 30.21 in 6.2 mi ENE 11.5 mph - N/A   Mostly Cloudy
5:00 PM 51.8 °F 50.0 °F 94% 30.21 in 6.2 mi ENE 10.4 mph - N/A   Mostly Cloudy
6:00 PM 51.8 °F 48.2 °F 88% 30.21 in 6.2 mi ENE 10.4 mph - N/A   Mostly Cloudy
7:00 PM 51.8 °F 50.0 °F 94% 30.21 in 6.2 mi ENE 8.1 mph - N/A   Mostly Cloudy
8:00 PM 51.8 °F 50.0 °F 94% 30.21 in 6.2 mi ENE 11.5 mph - N/A   Mostly Cloudy
9:00 PM 51.8 °F 50.0 °F 94% 30.18 in 6.2 mi ENE 10.4 mph - N/A   Mostly Cloudy
10:00 PM 51.8 °F 50.0 °F 94% 30.18 in 6.2 mi NE 4.6 mph - N/A   Mostly Cloudy
11:00 PM 51.8 °F 48.2 °F 88% 30.18 in 6.2 mi North 2.3 mph - N/A   Mostly Cloudy